APG326 RPLL-RPVB

Flight info

Callsign APG326
Flight time 0h 48m
Altitude 31000
Route VERDE2V VERDE W24 TAPER B472 LAMBO LAMBO3P
Aircraft A320/M-SDE3FGHIRWY/LB1

Departure

Time 2026-04-30 19:03
Airport Ninoy Aquino International Airport (RPLL)

Arrival

Time 2026-04-30 19:51
Airport Bacolod-Silay International Airport (RPVB)
Time Latitude Longitude Altitude Speed Heading
2026-04-30 18:55 14.52536 121.00179 69 ft 0 kts 270°
2026-04-30 19:00 14.52535 121.00193 61 ft 3 kts 256°
2026-04-30 19:00 14.52543 121.00209 63 ft 3 kts 220°
2026-04-30 19:00 14.52558 121.00218 69 ft 0 kts 186°
2026-04-30 19:01 14.52553 121.00221 65 ft 5 kts 160°
2026-04-30 19:01 14.52471 121.00293 68 ft 22 kts 139°
2026-04-30 19:02 14.52273 121.00493 66 ft 0 kts 135°
2026-04-30 19:02 14.52248 121.00519 68 ft 30 kts 134°
2026-04-30 19:03 14.51289 121.01519 90 ft 151 kts 135°
2026-04-30 19:03 14.49747 121.03063 1391 ft 154 kts 133°
2026-04-30 19:04 14.48150 121.04729 2256 ft 182 kts 131°
2026-04-30 19:04 14.46127 121.06852 2858 ft 232 kts 131°
2026-04-30 19:05 14.43539 121.09217 4085 ft 266 kts 153°
2026-04-30 19:05 14.39772 121.09084 5760 ft 283 kts 191°
2026-04-30 19:06 14.35906 121.08113 7402 ft 289 kts 191°
2026-04-30 19:06 14.33945 121.07616 8203 ft 292 kts 191°
2026-04-30 19:06 14.29951 121.06620 9804 ft 298 kts 191°
2026-04-30 19:07 14.26056 121.04771 10680 ft 332 kts 212°
2026-04-30 19:07 14.24099 121.03383 11029 ft 347 kts 213°
2026-04-30 19:08 14.20060 121.00502 12271 ft 358 kts 213°
2026-04-30 19:08 14.15934 120.97575 13556 ft 366 kts 214°
2026-04-30 19:08 14.13823 120.96082 14133 ft 370 kts 213°
2026-04-30 19:09 14.09543 120.93064 15307 ft 375 kts 213°
2026-04-30 19:09 14.07311 120.91647 15875 ft 377 kts 205°
2026-04-30 19:09 14.04849 120.90721 16458 ft 378 kts 192°
2026-04-30 19:10 13.99618 120.90564 17601 ft 380 kts 168°
2026-04-30 19:10 13.94470 120.91875 18647 ft 385 kts 165°
2026-04-30 19:11 13.91856 120.92551 19123 ft 388 kts 165°
2026-04-30 19:11 13.86577 120.93904 20087 ft 393 kts 165°
2026-04-30 19:11 13.83912 120.94585 20573 ft 396 kts 165°
2026-04-30 19:12 13.81229 120.95271 21060 ft 398 kts 165°
2026-04-30 19:12 13.78528 120.95963 21542 ft 401 kts 165°
2026-04-30 19:12 13.75804 120.96659 22031 ft 404 kts 165°
2026-04-30 19:13 13.70318 120.98060 22969 ft 409 kts 165°
2026-04-30 19:13 13.64801 120.99480 23799 ft 413 kts 166°
2026-04-30 19:13 13.62005 121.00201 24157 ft 415 kts 166°
2026-04-30 19:14 13.59191 121.00924 24515 ft 418 kts 166°
2026-04-30 19:14 13.56365 121.01650 24876 ft 420 kts 166°
2026-04-30 19:14 13.53522 121.02381 25233 ft 422 kts 166°
2026-04-30 19:14 13.50730 121.03330 25575 ft 425 kts 157°
2026-04-30 19:15 13.48113 121.04755 25916 ft 428 kts 147°
2026-04-30 19:15 13.43174 121.08228 26560 ft 432 kts 146°
2026-04-30 19:15 13.40682 121.09986 26865 ft 435 kts 147°
2026-04-30 19:16 13.38182 121.11749 27160 ft 437 kts 147°
2026-04-30 19:16 13.35666 121.13520 27475 ft 439 kts 147°
2026-04-30 19:16 13.30591 121.17081 28110 ft 444 kts 147°
2026-04-30 19:17 13.28029 121.18874 28412 ft 446 kts 147°
2026-04-30 19:17 13.22869 121.22490 29013 ft 451 kts 147°
2026-04-30 19:17 13.20308 121.24286 29297 ft 453 kts 147°
2026-04-30 19:18 13.16813 121.26736 29677 ft 455 kts 147°
2026-04-30 19:18 13.13306 121.29193 30026 ft 458 kts 147°
2026-04-30 19:18 13.10668 121.31042 30260 ft 460 kts 147°
2026-04-30 19:19 13.08058 121.32872 30488 ft 461 kts 147°
2026-04-30 19:19 13.05411 121.34726 30736 ft 461 kts 147°
2026-04-30 19:19 13.00136 121.38418 30919 ft 447 kts 147°
2026-04-30 19:20 12.97603 121.40190 30926 ft 436 kts 147°
2026-04-30 19:20 12.95107 121.41933 30924 ft 433 kts 147°
2026-04-30 19:21 12.87671 121.47125 30915 ft 431 kts 147°
2026-04-30 19:22 12.77777 121.54044 30913 ft 430 kts 147°
2026-04-30 19:23 12.62975 121.64363 30906 ft 429 kts 147°
2026-04-30 19:24 12.55575 121.69516 30904 ft 428 kts 147°
2026-04-30 19:25 12.43305 121.78065 30903 ft 427 kts 147°
2026-04-30 19:26 12.33147 121.84254 30888 ft 424 kts 158°
2026-04-30 19:27 12.24991 121.87803 30885 ft 424 kts 158°
2026-04-30 19:28 12.16841 121.91364 30885 ft 424 kts 157°
2026-04-30 19:29 12.06032 121.96074 30887 ft 423 kts 157°
2026-04-30 19:30 11.95225 122.00795 30883 ft 422 kts 157°
2026-04-30 19:31 11.84436 122.05484 30881 ft 421 kts 157°
2026-04-30 19:31 11.76369 122.08992 30707 ft 434 kts 157°
2026-04-30 19:32 11.73578 122.10205 29984 ft 437 kts 156°
2026-04-30 19:32 11.70814 122.11408 29224 ft 437 kts 156°
2026-04-30 19:32 11.68028 122.12621 28561 ft 434 kts 156°
2026-04-30 19:32 11.65250 122.13830 27954 ft 430 kts 156°
2026-04-30 19:33 11.62505 122.15020 27414 ft 425 kts 156°
2026-04-30 19:33 11.59792 122.16194 26918 ft 420 kts 156°
2026-04-30 19:33 11.57116 122.17353 26436 ft 415 kts 156°
2026-04-30 19:33 11.54473 122.18502 25958 ft 411 kts 156°
2026-04-30 19:34 11.51857 122.19639 25466 ft 407 kts 155°
2026-04-30 19:34 11.49259 122.20765 24996 ft 404 kts 156°
2026-04-30 19:34 11.44112 122.22996 24031 ft 400 kts 155°
2026-04-30 19:35 11.41556 122.24106 23532 ft 399 kts 155°
2026-04-30 19:35 11.39041 122.25201 22976 ft 397 kts 155°
2026-04-30 19:35 11.36509 122.26305 22476 ft 395 kts 155°
2026-04-30 19:35 11.33990 122.27398 21977 ft 392 kts 155°
2026-04-30 19:36 11.31483 122.28484 21466 ft 390 kts 155°
2026-04-30 19:36 11.28991 122.29561 20985 ft 388 kts 155°
2026-04-30 19:36 11.24042 122.31702 20000 ft 384 kts 155°
2026-04-30 19:37 11.21591 122.32765 19504 ft 382 kts 154°
2026-04-30 19:37 11.19138 122.33828 19023 ft 381 kts 154°
2026-04-30 19:37 11.16724 122.34877 18837 ft 371 kts 153°
2026-04-30 19:37 11.14509 122.36126 18722 ft 357 kts 147°
2026-04-30 19:38 11.12442 122.37382 18525 ft 345 kts 146°
2026-04-30 19:38 11.10397 122.38628 18100 ft 340 kts 146°
2026-04-30 19:38 11.08380 122.39859 17555 ft 336 kts 146°
2026-04-30 19:38 11.06382 122.41082 17037 ft 334 kts 146°
2026-04-30 19:39 11.04401 122.42296 16550 ft 331 kts 146°
2026-04-30 19:39 11.02426 122.43503 16054 ft 329 kts 146°
2026-04-30 19:39 11.00469 122.44695 15567 ft 327 kts 146°
2026-04-30 19:39 10.98523 122.45883 15089 ft 325 kts 146°
2026-04-30 19:40 10.96595 122.47062 14633 ft 322 kts 146°
2026-04-30 19:40 10.94675 122.48235 14190 ft 320 kts 146°
2026-04-30 19:40 10.92768 122.49397 13746 ft 318 kts 146°
2026-04-30 19:40 10.90877 122.50548 13253 ft 315 kts 146°
2026-04-30 19:41 10.89002 122.51696 12793 ft 312 kts 144°
2026-04-30 19:41 10.87372 122.53058 12323 ft 304 kts 130°
2026-04-30 19:41 10.86070 122.54721 11853 ft 299 kts 124°
2026-04-30 19:41 10.84820 122.56407 11395 ft 296 kts 124°
2026-04-30 19:42 10.83575 122.58073 10933 ft 294 kts 125°
2026-04-30 19:42 10.82348 122.59714 10445 ft 289 kts 125°
2026-04-30 19:42 10.81136 122.61331 9840 ft 285 kts 125°
2026-04-30 19:42 10.79938 122.62931 9185 ft 282 kts 125°
2026-04-30 19:43 10.78754 122.64513 8514 ft 280 kts 124°
2026-04-30 19:43 10.77577 122.66085 7867 ft 277 kts 125°
2026-04-30 19:43 10.76420 122.67628 7405 ft 273 kts 124°
2026-04-30 19:44 10.74141 122.70668 6573 ft 272 kts 124°
2026-04-30 19:44 10.72992 122.72203 6146 ft 272 kts 124°
2026-04-30 19:44 10.71846 122.73733 5711 ft 271 kts 124°
2026-04-30 19:44 10.70707 122.75253 5295 ft 270 kts 125°
2026-04-30 19:45 10.69571 122.76771 4872 ft 269 kts 125°
2026-04-30 19:45 10.68438 122.78285 4455 ft 266 kts 125°
2026-04-30 19:45 10.67324 122.79772 4048 ft 262 kts 124°
2026-04-30 19:45 10.66442 122.81342 3663 ft 258 kts 110°
2026-04-30 19:46 10.66012 122.83087 3342 ft 250 kts 94°
2026-04-30 19:46 10.65939 122.84796 3276 ft 234 kts 91°
2026-04-30 19:46 10.65877 122.86404 3191 ft 221 kts 91°
2026-04-30 19:46 10.65812 122.87930 3097 ft 213 kts 91°
2026-04-30 19:47 10.65746 122.89423 3010 ft 211 kts 92°
2026-04-30 19:47 10.65706 122.90397 2939 ft 203 kts 91°
2026-04-30 19:47 10.65631 122.92261 2825 ft 192 kts 91°
2026-04-30 19:47 10.65691 122.93611 2614 ft 190 kts 75°
2026-04-30 19:48 10.66201 122.94813 2462 ft 181 kts 57°
2026-04-30 19:48 10.67066 122.95716 2249 ft 179 kts 36°
2026-04-30 19:48 10.68127 122.96350 2013 ft 173 kts 32°
2026-04-30 19:48 10.69118 122.96927 1796 ft 158 kts 32°
2026-04-30 19:49 10.70024 122.97454 1634 ft 144 kts 32°
2026-04-30 19:49 10.71688 122.98426 1268 ft 137 kts 31°
2026-04-30 19:49 10.72510 122.98905 1092 ft 135 kts 32°
2026-04-30 19:50 10.73331 122.99384 932 ft 135 kts 30°
2026-04-30 19:50 10.74145 122.99859 770 ft 135 kts 31°
2026-04-30 19:50 10.74965 123.00331 614 ft 134 kts 30°
2026-04-30 19:50 10.75786 123.00814 397 ft 135 kts 31°
2026-04-30 19:51 10.76597 123.01288 192 ft 134 kts 31°
2026-04-30 19:51 10.77368 123.01744 87 ft 117 kts 31°
2026-04-30 19:51 10.77811 123.02001 89 ft 30 kts 30°
2026-04-30 19:51 10.77944 123.02079 90 ft 22 kts 30°
2026-04-30 19:52 10.78076 123.02155 92 ft 22 kts 30°
2026-04-30 19:52 10.78214 123.02234 88 ft 23 kts 30°
2026-04-30 19:52 10.78349 123.02312 89 ft 15 kts 24°
2026-04-30 19:52 10.78432 123.02324 87 ft 12 kts 27°
2026-04-30 19:53 10.78423 123.02359 88 ft 4 kts 209°
2026-04-30 19:53 10.78400 123.02345 87 ft 9 kts 210°
2026-04-30 19:53 10.78261 123.02263 87 ft 30 kts 210°
2026-04-30 19:53 10.78080 123.02158 89 ft 31 kts 210°
2026-04-30 19:54 10.77891 123.02045 91 ft 32 kts 209°
2026-04-30 19:54 10.77738 123.01959 91 ft 16 kts 209°
2026-04-30 19:54 10.77681 123.01876 88 ft 15 kts 279°
2026-04-30 19:54 10.77726 123.01791 86 ft 12 kts 299°
2026-04-30 19:55 10.77742 123.01714 87 ft 11 kts 252°
2026-04-30 19:55 10.77689 123.01666 85 ft 10 kts 211°
2026-04-30 19:55 10.77632 123.01633 86 ft 9 kts 209°
2026-04-30 19:55 10.77606 123.01604 88 ft 4 kts 280°
2026-04-30 19:56 10.77620 123.01581 85 ft 3 kts 301°
2026-04-30 19:56 10.77631 123.01562 84 ft 3 kts 301°
2026-04-30 19:56 10.77637 123.01552 88 ft 0 kts 301°
2026-04-30 20:12 10.77640 123.01547 87 ft 1 kts 301°
2026-04-30 20:12 10.77641 123.01545 87 ft 1 kts 301°
2026-04-30 20:12 10.77637 123.01552 87 ft 0 kts 301°
2026-04-30 20:13 10.77636 123.01552 87 ft 0 kts 301°
2026-04-30 20:18 10.77634 123.01557 87 ft 3 kts 301°
2026-04-30 20:18 10.77615 123.01589 89 ft 1 kts 301°